Weather History for Houghton, MI

Change the Weather History Date:

Saturday, December 8, 2012

  Actual Average Record
Temperature  
Mean Temperature 20 °F -  
Max Temperature 25 °F 26 °F 40 °F (1984)
Min Temperature 14 °F 16 °F -5 °F (1972)
Degree Days  
Heating Degree Days 46    
Moisture  
Dew Point 16 °F    
Average Humidity 78    
Maximum Humidity 91    
Minimum Humidity 69    
Precipitation  
Precipitation 0.00 in - - ()
Sea Level Pressure  
Sea Level Pressure 30.09 in    
Wind  
Wind Speed 5 mph (North)    
Max Wind Speed 9 mph    
Max Gust Speed -    
Visibility 10 miles    
Events Snow    
Averages and records for this station are not official NWS values.
T = Trace of Precipitation, MM = Missing Value Source: NWS Daily Summary

Daily Weather History Graph

Daily Weather History Graph

Search for Another Location

Airport:

Trip Planner

Search our weather history database for the weather conditions in past years. The results will help you decide how hot, cold, wet, or windy it might be!

Date:

Astronomy

Dec. 08, 2012 Rise Set
Actual Time 8:27 AM EST 5:04 PM EST
Civil Twilight 7:52 AM EST 5:39 PM EST
Nautical Twilight 7:13 AM EST 6:18 PM EST
Astronomical Twilight 6:36 AM EST 6:55 PM EST
Moon 2:34 AM EST (12/8) 1:49 PM EST (12/8)
Length of Visible Light 9h 46m
Length of Day
8h 36m
Waning Crescent, 28% of the Moon is Illuminated
Dec 8
Waning Crescent
Dec 13
New
Dec 20
First Quarter
Dec 28
Full
Jan 4
Last Quarter

Hourly Weather History & Observations

Time (EST) Temp. Windchill Dew Point Humidity Pressure Visibility Wind Dir Wind Speed Gust Speed Precip Events Conditions
12:53 AM 25.0 °F 18.1 °F 18.0 °F 75% 30.05 in 10.0 mi NNE 5.8 mph - N/A   Overcast
1:53 AM 25.0 °F 19.3 °F 18.0 °F 75% 30.04 in 10.0 mi NNE 4.6 mph - N/A   Overcast
2:53 AM 24.1 °F 17.0 °F 18.0 °F 77% 30.05 in 10.0 mi NNE 5.8 mph - N/A   Overcast
3:53 AM 23.0 °F 15.8 °F 18.0 °F 81% 30.05 in 10.0 mi NNE 5.8 mph - N/A   Overcast
4:53 AM 23.0 °F 15.8 °F 17.1 °F 78% 30.05 in 10.0 mi NNE 5.8 mph - N/A   Overcast
5:53 AM 23.0 °F 17.0 °F 17.6 °F 80% 30.00 in 10.0 mi NNE 4.6 mph - N/A   Overcast
6:53 AM 23.0 °F 18.4 °F 17.1 °F 78% 30.06 in 10.0 mi NE 3.5 mph - N/A   Overcast
7:53 AM 23.0 °F - 18.0 °F 81% 30.06 in 10.0 mi Calm Calm - N/A   Overcast
8:45 AM 23.0 °F - 17.6 °F 80% 30.02 in 10.0 mi Calm Calm - N/A   Overcast
8:53 AM 23.0 °F 15.8 °F 18.0 °F 81% 30.07 in 10.0 mi North 5.8 mph - N/A   Overcast
9:53 AM 24.1 °F - 18.0 °F 77% 30.08 in 4.0 mi Calm Calm - 0.00 in Snow Light Snow
10:53 AM 24.1 °F 17.0 °F 17.1 °F 75% 30.10 in 4.0 mi NNW 5.8 mph - 0.00 in Snow Light Snow
11:53 AM 24.1 °F 15.2 °F 16.0 °F 71% 30.09 in 10.0 mi NW 8.1 mph - 0.00 in   Overcast
12:53 PM 24.1 °F 17.0 °F 17.1 °F 75% 30.09 in 10.0 mi North 5.8 mph - N/A   Overcast
1:53 PM 25.0 °F 18.1 °F 16.0 °F 69% 30.09 in 10.0 mi NW 5.8 mph - N/A   Overcast
2:53 PM 25.0 °F 15.5 °F 17.1 °F 72% 30.09 in 10.0 mi WNW 9.2 mph - N/A   Overcast
3:48 PM 24.8 °F 17.9 °F 15.8 °F 69% 30.05 in 10.0 mi WNW 5.8 mph - N/A   Scattered Clouds
3:53 PM 25.0 °F 17.1 °F 16.0 °F 69% 30.11 in 10.0 mi WNW 6.9 mph - N/A   Scattered Clouds
4:16 PM 24.8 °F 16.9 °F 15.8 °F 69% 30.06 in 10.0 mi West 6.9 mph - N/A   Mostly Cloudy
4:53 PM 21.9 °F 13.4 °F 15.1 °F 75% 30.12 in 10.0 mi NW 6.9 mph - N/A   Scattered Clouds
5:53 PM 19.0 °F 13.9 °F 15.1 °F 85% 30.14 in 10.0 mi NW 3.5 mph - N/A   Clear
6:53 PM 17.1 °F - 14.0 °F 88% 30.17 in 10.0 mi Calm Calm - N/A   Clear
7:53 PM 15.1 °F - 12.9 °F 91% 30.17 in 10.0 mi Calm Calm - N/A   Clear
8:53 PM 15.1 °F - 12.0 °F 88% 30.17 in 10.0 mi Calm Calm - N/A   Clear
9:53 PM 14.0 °F 8.2 °F 10.9 °F 88% 30.18 in 10.0 mi NE 3.5 mph - N/A   Partly Cloudy
10:53 PM 18.0 °F 9.8 °F 14.0 °F 84% 30.18 in 10.0 mi ENE 5.8 mph - N/A   Clear
11:53 PM 16.0 °F 10.4 °F 12.0 °F 84% 30.19 in 10.0 mi NE 3.5 mph - N/A   Clear